1514246400.85,11595,8.44,73558.8,-5.13,-6.23,-6.23,0,*5E
1514246402.1,11596,8.44,73558.0,-5.13,-6.19,-6.19,0,*5D
1514246403.29,11597,8.44,73556.3,-5.13,-6.09,-6.09,0,*5C
1514246404.55,11598,8.44,73556.3,-5.13,-6.19,-6.19,0,*53
1514246405.82,11599,8.44,73560.0,-5.11,-6.19,-6.19,0,*50
1514246407.07,11600,8.44,73556.5,-5.13,-6.19,-6.19,0,*51
1514246408.32,11601,8.44,73556.3,-5.13,-6.19,-6.19,0,*50
1514246409.57,11602,8.44,73554.5,-5.13,-6.19,-6.19,0,*53
1514246410.82,11603,8.44,73556.3,-5.11,-6.19,-6.09,0,*51
1514246412.07,11604,8.44,73560.8,-5.13,-6.19,-6.19,0,*55
1514246413.32,11605,8.44,73562.5,-5.13,-6.19,-6.19,0,*54
1514246414.57,11606,8.44,73560.8,-5.11,-6.09,-6.19,0,*54
1514246415.84,11607,8.44,73558.3,-5.11,-6.19,-6.19,0,*54
1514246417.06,11608,8.44,73556.8,-5.09,-6.19,-6.13,0,*58
1514246418.34,11609,8.44,73558.5,-5.11,-6.19,-6.19,0,*5A
1514246419.61,11610,8.44,73558.8,-5.11,-6.19,-6.19,0,*52
1514246420.88,11611,8.44,73562.3,-5.11,-6.19,-6.19,0,*53
1514246422.08,11612,8.44,73556.0,-5.09,-6.13,-6.13,0,*59
1514246423.27,11613,8.44,73554.5,-5.09,-6.13,-6.05,0,*5F
1514246424.52,11614,8.44,73552.3,-5.11,-6.19,-6.09,0,*57
1514246425.76,11615,8.44,73550.8,-5.11,-6.23,-6.09,0,*5F
1514246427.03,11616,8.44,73548.0,-5.11,-6.19,-6.19,0,*54
1514246428.22,11617,8.44,73558.0,-5.09,-6.13,-6.05,0,*5B
1514246429.47,11618,8.44,73554.8,-5.11,-6.19,-6.09,0,*5B
1514246430.74,11619,8.44,73558.5,-5.11,-6.19,-6.19,0,*5B
1514246431.99,11620,8.44,73554.8,-5.11,-6.09,-6.19,0,*50
1514246433.24,11621,8.44,73554.0,-5.11,-6.09,-6.19,0,*51
1514246434.43,11622,8.44,73554.3,-5.09,-6.13,-6.13,0,*5A
1514246435.63,11623,8.44,73554.5,-5.09,-6.13,-6.05,0,*5C
1514246436.88,11624,8.44,73556.3,-5.11,-6.09,-6.19,0,*54
1514246438.13,11625,8.44,73560.5,-5.11,-6.09,-6.19,0,*55
1514246439.4,11626,8.44,73566.3,-5.11,-6.19,-6.19,0,*57
1514246440.59,11627,8.44,73564.8,-5.09,-6.13,-6.13,0,*5F
1514246441.87,11628,8.44,73564.0,-5.11,-6.19,-6.19,0,*59
1514246443.11,11629,8.44,73562.3,-5.11,-6.19,-6.09,0,*59
1514246444.36,11630,8.44,73564.8,-5.11,-6.19,-6.13,0,*5A
1514246445.63,11631,8.44,73566.5,-5.11,-6.23,-6.19,0,*58
1514246446.9,11632,8.44,73560.3,-5.11,-6.23,-6.19,0,*5B
1514246448.17,11633,8.44,73552.5,-5.11,-6.19,-6.19,0,*53
1514246449.39,11634,8.44,73554.5,-5.09,-6.19,-6.13,0,*57
1514246450.66,11635,8.44,73554.0,-5.11,-6.23,-6.19,0,*5C
1514246451.85,11636,8.44,73552.3,-5.09,-6.13,-6.13,0,*5F
1514246453.12,11637,8.44,73550.3,-5.11,-6.23,-6.23,0,*57
1514246454.33,11638,8.44,73550.0,-5.09,-6.23,-6.13,0,*52
1514246455.55,11639,8.44,73558.5,-5.09,-6.19,-6.13,0,*5A
1514246456.78,11640,8.44,73554.8,-5.09,-6.19,-6.13,0,*54
1514246458.03,11641,8.44,73544.5,-5.09,-6.19,-6.19,0,*5F
1514246459.27,11642,8.44,73540.3,-5.09,-6.23,-6.19,0,*55
1514246460.52,11643,8.44,73542.5,-5.09,-6.19,-6.19,0,*5D
1514246461.75,11644,8.44,73546.5,-5.11,-6.31,-6.31,0,*53
1514246463.02,11645,8.44,73550.0,-5.11,-6.19,-6.23,0,*5B
1514246464.27,11646,8.44,73554.0,-5.09,-6.19,-6.19,0,*58
1514246465.53,11647,8.44,73562.0,-5.11,-6.23,-6.23,0,*50
1514246466.79,11648,8.44,73560.5,-5.11,-6.23,-6.23,0,*5F
1514246468.07,11649,8.44,73560.8,-5.11,-6.19,-6.19,0,*5E
1514246469.32,11650,8.44,73558.5,-5.09,-6.19,-6.19,0,*5F
1514246470.54,11651,8.44,73556.5,-5.07,-6.09,-6.13,0,*5B
1514246471.75,11652,8.44,73560.5,-5.09,-6.23,-6.13,0,*5E
1514246473.0,11653,8.44,73552.8,-5.11,-6.23,-6.31,0,*56
1514246474.25,11654,8.44,73548.0,-5.09,-6.19,-6.19,0,*5B
1514246475.5,11655,8.44,73556.5,-5.09,-6.19,-6.27,0,*57
1514246476.74,11656,8.44,73558.5,-5.09,-6.27,-6.19,0,*54
1514246477.99,11657,8.44,73560.5,-5.11,-6.23,-6.31,0,*52
1514246479.23,11658,8.44,73560.0,-5.09,-6.27,-6.19,0,*5A
1514246480.49,11659,8.44,73556.0,-5.09,-6.19,-6.19,0,*56
1514246481.7,11660,8.44,73556.0,-5.07,-6.13,-6.09,0,*59
1514246482.97,11661,8.44,73558.0,-5.11,-6.23,-6.23,0,*54
1514246484.23,11662,8.44,73558.5,-5.11,-6.23,-6.23,0,*57
1514246485.47,11663,8.44,73564.8,-5.09,-6.23,-6.27,0,*5B
1514246486.72,11664,8.44,73566.0,-5.09,-6.19,-6.27,0,*55
1514246487.97,11665,8.44,73566.8,-5.09,-6.19,-6.19,0,*59
1514246489.19,11666,8.44,73562.5,-5.09,-6.27,-6.13,0,*5D
1514246490.43,11667,8.44,73562.3,-5.09,-6.27,-6.27,0,*5B
1514246491.69,11668,8.44,73566.3,-5.11,-6.23,-6.23,0,*5D
1514246492.94,11669,8.44,73564.8,-5.09,-6.19,-6.19,0,*55
1514246494.19,11670,8.44,73566.0,-5.11,-6.23,-6.31,0,*57
1514246495.43,11671,8.44,73566.3,-5.09,-6.27,-6.27,0,*5C
1514246496.67,11672,8.44,73566.8,-5.09,-6.27,-6.19,0,*52
1514246497.92,11673,8.44,73562.8,-5.09,-6.19,-6.27,0,*53
1514246499.14,11674,8.44,73566.0,-5.09,-6.31,-6.23,0,*5A
1514246500.38,11675,8.44,73568.8,-5.09,-6.19,-6.27,0,*55
1514246501.61,11676,8.44,73566.5,-5.11,-6.31,-6.31,0,*52
1514246502.85,11677,8.44,73568.0,-5.11,-6.31,-6.23,0,*50
1514246504.05,11678,8.44,73558.8,-5.09,-6.31,-6.31,0,*55
1514246505.3,11679,8.44,73558.5,-5.09,-6.27,-6.19,0,*59
1514246506.54,11680,8.44,73562.5,-5.09,-6.19,-6.27,0,*5F
1514246507.79,11681,8.44,73562.8,-5.09,-6.27,-6.19,0,*5E
1514246509.03,11682,8.44,73568.0,-5.09,-6.27,-6.19,0,*5D
1514246510.3,11683,8.44,73566.3,-5.11,-6.23,-6.23,0,*58
1514246511.54,11684,8.44,73566.8,-5.09,-6.19,-6.27,0,*5B
1514246512.79,11685,8.44,73560.5,-5.09,-6.19,-6.19,0,*57
1514246514.04,11686,8.44,73564.0,-5.09,-6.19,-6.19,0,*54
1514246515.29,11687,8.44,73564.3,-5.09,-6.27,-6.27,0,*55
1514246516.53,11688,8.44,73566.3,-5.09,-6.27,-6.19,0,*57
1514246517.77,11689,8.44,73566.5,-5.07,-6.23,-6.13,0,*56
1514246519.02,11690,8.44,73562.5,-5.09,-6.19,-6.19,0,*53
1514246520.26,11691,8.44,73562.3,-5.09,-6.27,-6.27,0,*52
1514246521.51,11692,8.44,73568.5,-5.09,-6.19,-6.19,0,*51
1514246522.75,11693,8.44,73562.3,-5.11,-6.31,-6.23,0,*5A
1514246524.0,11694,8.44,73554.3,-5.09,-6.27,-6.27,0,*57
1514246525.26,11695,8.44,73556.8,-5.11,-6.23,-6.23,0,*5F
1514246526.51,11696,8.44,73568.3,-5.09,-6.19,-6.27,0,*58
1514246527.75,11697,8.44,73562.5,-5.09,-6.19,-6.27,0,*59
1514246529.0,11698,8.44,73564.0,-5.09,-6.19,-6.27,0,*56
1514246530.25,11699,8.44,73570.3,-5.09,-6.19,-6.19,0,*5A
1514246531.5,11700,8.44,73568.0,-5.09,-6.27,-6.19,0,*56
1514246532.74,11701,8.44,73572.0,-5.09,-6.27,-6.19,0,*57
1514246533.99,11702,8.44,73570.8,-5.09,-6.19,-6.27,0,*54
1514246535.23,11703,8.44,73566.5,-5.09,-6.27,-6.27,0,*58
1514246536.49,11704,8.44,73564.3,-5.11,-6.23,-6.23,0,*56
1514246537.74,11705,8.44,73562.5,-5.09,-6.19,-6.19,0,*5E
1514246538.99,11706,8.44,73558.3,-5.09,-6.27,-6.19,0,*50
1514246540.23,11707,8.44,73562.5,-5.09,-6.27,-6.19,0,*51
1514246541.48,11708,8.44,73570.0,-5.09,-6.19,-6.27,0,*5E
1514246542.73,11709,8.44,73568.0,-5.09,-6.19,-6.27,0,*5F
1514246543.95,11710,8.44,73566.3,-5.09,-6.19,-6.13,0,*50
1514246545.2,11711,8.44,73560.0,-5.09,-6.19,-6.19,0,*5B
1514246546.46,11712,8.44,73562.5,-5.11,-6.23,-6.23,0,*51
1514246547.72,11713,8.44,73564.0,-5.11,-6.23,-6.23,0,*50
1514246548.97,11714,8.44,73564.0,-5.09,-6.27,-6.19,0,*53
1514246550.21,11715,8.44,73566.3,-5.09,-6.27,-6.19,0,*52
1514246551.46,11716,8.44,73566.5,-5.09,-6.19,-6.19,0,*5C
1514246552.72,11717,8.44,73560.3,-5.09,-6.19,-6.19,0,*5D
1514246553.96,11718,8.44,73564.3,-5.09,-6.27,-6.27,0,*52
1514246555.21,11719,8.44,73566.8,-5.09,-6.19,-6.19,0,*53
1514246556.46,11720,8.44,73568.3,-5.09,-6.19,-6.19,0,*59
1514246557.7,11721,8.44,73572.5,-5.09,-6.27,-6.27,0,*58
1514246558.95,11722,8.44,73572.8,-5.09,-6.19,-6.19,0,*5B
1514246560.17,11723,8.44,73574.5,-5.07,-6.13,-6.13,0,*54
1514246561.44,11724,8.44,73570.0,-5.11,-6.23,-6.19,0,*5D
1514246562.68,11725,8.44,73570.0,-5.09,-6.27,-6.27,0,*5C
1514246563.93,11726,8.44,73564.0,-5.09,-6.19,-6.19,0,*5F
1514246565.15,11727,8.44,73566.0,-5.09,-6.13,-6.19,0,*54
1514246566.38,11728,8.44,73564.8,-5.09,-6.13,-6.19,0,*5B
1514246567.63,11729,8.44,73566.3,-5.09,-6.19,-6.19,0,*50
1514246568.85,11730,8.44,73566.8,-5.09,-6.13,-6.19,0,*52
1514246570.05,11731,8.44,73564.5,-5.09,-6.13,-6.13,0,*59
1514246571.27,11732,8.44,73568.3,-5.09,-6.19,-6.13,0,*50
1514246572.49,11733,8.44,73570.0,-5.09,-6.19,-6.13,0,*51
1514246573.7,11734,8.44,73570.8,-5.09,-6.27,-6.13,0,*5B
1514246574.96,11735,8.44,73568.3,-5.09,-6.19,-6.19,0,*5D
1514246576.17,11736,8.44,73566.3,-5.09,-6.27,-6.13,0,*59
1514246577.38,11737,8.44,73560.3,-5.09,-6.27,-6.13,0,*58
1514246578.63,11738,8.44,73560.3,-5.09,-6.19,-6.19,0,*50
1514246579.88,11739,8.44,73552.5,-5.09,-6.19,-6.27,0,*5C
1514246581.13,11740,8.44,73554.8,-5.09,-6.19,-6.19,0,*5F
1514246582.35,11741,8.44,73548.8,-5.09,-6.19,-6.13,0,*54
1514246583.57,11742,8.44,73546.8,-5.09,-6.27,-6.13,0,*5A
1514246584.78,11743,8.44,73544.8,-5.09,-6.27,-6.13,0,*5B
1514246586.03,11744,8.44,73544.3,-5.09,-6.19,-6.19,0,*5B
1514246587.28,11745,8.44,73544.8,-5.07,-6.09,-6.23,0,*5C
1514246588.51,11746,8.44,73548.0,-5.07,-6.23,-6.13,0,*54
1514246589.73,11747,8.44,73544.5,-5.07,-6.13,-6.13,0,*56
1514246590.97,11748,8.44,73544.5,-5.07,-6.23,-6.13,0,*5A
1514246592.21,11749,8.44,73546.8,-5.07,-6.23,-6.09,0,*50
1514246593.43,11750,8.44,73548.5,-5.07,-6.13,-6.13,0,*50
1514246594.65,11751,8.44,73550.0,-5.07,-6.13,-6.09,0,*5A
1514246595.86,11752,8.44,73548.3,-5.07,-6.13,-6.09,0,*59
1514246597.1,11753,8.44,73546.8,-5.07,-6.13,-6.23,0,*50
1514246598.3,11754,8.44,73548.0,-5.09,-6.13,-6.13,0,*5A
1514246599.52,11755,8.44,73552.8,-5.07,-6.13,-6.13,0,*55
1514246600.73,11756,8.44,73556.8,-5.07,-6.09,-6.09,0,*56
1514246601.95,11757,8.44,73552.3,-5.07,-6.13,-6.09,0,*5C
1514246603.17,11758,8.44,73550.0,-5.07,-6.09,-6.13,0,*53
1514246604.39,11759,8.44,73554.5,-5.07,-6.01,-6.13,0,*5A
1514246605.61,11760,8.44,73560.3,-5.07,-6.13,-6.09,0,*58
1514246606.8,11761,8.44,73558.3,-5.05,-6.13,-6.09,0,*5B
1514246608.04,11762,8.44,73558.8,-5.07,-6.13,-6.23,0,*52
1514246609.26,11763,8.44,73558.3,-5.07,-6.13,-6.13,0,*50
1514246610.46,11764,8.44,73554.5,-5.05,-6.13,-6.09,0,*5E
1514246611.67,11765,8.44,73546.0,-5.07,-6.13,-6.13,0,*56
1514246612.89,11766,8.44,73544.3,-5.07,-6.13,-6.09,0,*5E
1514246614.11,11767,8.44,73546.3,-5.07,-6.13,-6.13,0,*54
1514246615.32,11768,8.44,73550.5,-5.07,-6.13,-6.09,0,*50
1514246616.57,11769,8.44,73552.8,-5.07,-6.23,-6.13,0,*59
1514246617.8,11770,8.44,73552.8,-5.07,-6.23,-6.13,0,*51
1514246619.07,11771,8.44,73550.5,-5.07,-6.23,-6.23,0,*53
1514246620.29,11772,8.44,73544.3,-5.09,-6.19,-6.13,0,*54
1514246621.53,11773,8.44,73546.5,-5.07,-6.23,-6.13,0,*52
1514246622.73,11774,8.44,73548.0,-5.05,-6.13,-6.13,0,*54
1514246623.97,11775,8.44,73548.0,-5.07,-6.13,-6.23,0,*54
1514246625.18,11776,8.44,73550.5,-5.05,-6.23,-6.13,0,*55
1514246626.4,11777,8.44,73548.5,-5.07,-6.13,-6.13,0,*55
1514246627.62,11778,8.44,73552.0,-5.07,-6.13,-6.13,0,*5A
1514246628.84,11779,8.44,73548.8,-5.07,-6.13,-6.13,0,*5B
1514246630.06,11780,8.44,73556.8,-5.05,-6.23,-6.13,0,*5C
1514246631.25,11781,8.44,73556.5,-5.05,-6.13,-6.13,0,*5E
1514246632.47,11782,8.44,73556.0,-5.07,-6.13,-6.09,0,*54
1514246633.69,11783,8.44,73556.5,-5.07,-6.13,-6.13,0,*5E
1514246634.95,11784,8.44,73560.5,-5.07,-6.23,-6.23,0,*59
1514246636.17,11785,8.44,73556.8,-5.05,-6.23,-6.13,0,*59
1514246637.41,11786,8.44,73562.8,-5.07,-6.13,-6.23,0,*58
1514246638.66,11787,8.44,73558.0,-5.05,-6.23,-6.23,0,*58
1514246639.92,11788,8.44,73562.0,-5.07,-6.23,-6.23,0,*55
1514246641.14,11789,8.44,73556.5,-5.05,-6.23,-6.13,0,*55
1514246642.38,11790,8.44,73554.8,-5.07,-6.23,-6.13,0,*5F
1514246643.57,11791,8.44,73554.8,-5.05,-6.13,-6.13,0,*5F
1514246644.84,11792,8.44,73560.5,-5.07,-6.23,-6.23,0,*5E
1514246646.06,11793,8.44,73562.5,-5.05,-6.23,-6.13,0,*5E
1514246647.3,11794,8.44,73562.0,-5.07,-6.13,-6.23,0,*5B
1514246648.56,11795,8.44,73562.8,-5.07,-6.23,-6.23,0,*59
1514246649.8,11796,8.44,73562.8,-5.07,-6.23,-6.13,0,*59
1514246651.06,11797,8.44,73552.8,-5.07,-6.23,-6.23,0,*5B
1514246652.33,11798,8.44,73554.8,-5.07,-6.23,-6.23,0,*54
1514246653.57,11799,8.44,73556.8,-5.07,-6.23,-6.13,0,*56
1514246654.81,11800,8.44,73554.0,-5.07,-6.23,-6.13,0,*59
1514246656.07,11801,8.44,73556.8,-5.07,-6.23,-6.23,0,*5B
1514246657.34,11802,8.44,73552.5,-5.07,-6.23,-6.23,0,*58
1514246658.6,11803,8.44,73552.0,-5.07,-6.23,-6.23,0,*59
1514246659.84,11804,8.44,73558.0,-5.07,-6.13,-6.23,0,*5D
1514246661.1,11805,8.44,73560.3,-5.07,-6.23,-6.23,0,*5F
1514246662.37,11806,8.44,73560.3,-5.07,-6.23,-6.23,0,*5C
1514246663.63,11807,8.44,73558.5,-5.07,-6.23,-6.23,0,*5D
1514246664.9,11808,8.44,73554.0,-5.07,-6.23,-6.27,0,*56
1514246666.14,11809,8.44,73562.3,-5.05,-6.23,-6.23,0,*51
1514246667.36,11810,8.44,73560.3,-5.09,-6.31,-6.19,0,*5F
1514246668.56,11811,8.44,73556.5,-5.09,-6.31,-6.31,0,*54
1514246669.78,11812,8.44,73560.5,-5.09,-6.27,-6.31,0,*50
1514246671.05,11813,8.44,73556.0,-5.07,-6.27,-6.27,0,*58
1514246672.29,11814,8.44,73558.0,-5.07,-6.27,-6.13,0,*58
1514246673.55,11815,8.44,73562.5,-5.07,-6.23,-6.23,0,*5E
1514246674.81,11816,8.44,73562.3,-5.07,-6.27,-6.23,0,*59
1514246676.08,11817,8.44,73558.0,-5.07,-6.23,-6.23,0,*5C
1514246677.34,11818,8.44,73558.0,-5.07,-6.27,-6.23,0,*57
1514246678.6,11819,8.44,73560.0,-5.07,-6.27,-6.27,0,*52
1514246679.84,11820,8.44,73562.3,-5.09,-6.27,-6.27,0,*56
1514246681.06,11821,8.44,73558.5,-5.09,-6.27,-6.31,0,*50
1514246682.33,11822,8.44,73544.3,-5.07,-6.23,-6.27,0,*5E
1514246683.55,11823,8.44,73554.3,-5.09,-6.31,-6.27,0,*52
1514246684.77,11824,8.44,73548.5,-5.09,-6.27,-6.39,0,*5D
1514246686.01,11825,8.44,73554.8,-5.09,-6.27,-6.27,0,*53
1514246687.25,11826,8.44,73554.0,-5.09,-6.27,-6.27,0,*50
1514246688.51,11827,8.44,73556.8,-5.07,-6.23,-6.23,0,*5F
1514246689.76,11828,8.44,73562.3,-5.09,-6.27,-6.19,0,*53
1514246691.0,11829,8.44,73560.0,-5.09,-6.27,-6.27,0,*5F
1514246692.22,11830,8.44,73558.0,-5.09,-6.31,-6.27,0,*50
1514246693.48,11831,8.44,73558.5,-5.07,-6.27,-6.23,0,*5C
1514246694.72,11832,8.44,73568.0,-5.09,-6.27,-6.27,0,*55
1514246695.97,11833,8.44,73570.5,-5.09,-6.19,-6.27,0,*59
1514246697.19,11834,8.44,73558.8,-5.09,-6.31,-6.27,0,*54
1514246698.43,11835,8.44,73560.3,-5.09,-6.27,-6.19,0,*5F
1514246699.67,11836,8.44,73556.0,-5.09,-6.27,-6.27,0,*51
1514246700.87,11837,8.44,73562.3,-5.09,-6.31,-6.31,0,*50
1514246702.09,11838,8.44,73564.8,-5.05,-6.23,-6.13,0,*50
1514246703.33,11839,8.44,73560.3,-5.07,-6.23,-6.13,0,*53
1514246704.56,11840,8.44,73558.0,-5.11,-6.31,-6.31,0,*59
1514246705.8,11841,8.44,73556.0,-5.09,-6.27,-6.19,0,*5C
1514246707.04,11842,8.44,73558.5,-5.07,-6.23,-6.13,0,*5F
1514246708.29,11843,8.44,73556.8,-5.09,-6.27,-6.19,0,*5E
1514246709.53,11844,8.44,73560.0,-5.09,-6.19,-6.27,0,*59
1514246710.77,11845,8.44,73558.8,-5.09,-6.27,-6.27,0,*55
1514246712.02,11846,8.44,73562.0,-5.09,-6.27,-6.19,0,*5B
1514246713.27,11847,8.44,73554.5,-5.09,-6.19,-6.19,0,*57
1514246714.52,11848,8.44,73558.8,-5.09,-6.19,-6.27,0,*55
1514246715.77,11849,8.44,73558.5,-5.09,-6.19,-6.27,0,*54
1514246717.01,11850,8.44,73564.3,-5.09,-6.27,-6.19,0,*5C
1514246718.25,11851,8.44,73566.8,-5.09,-6.27,-6.19,0,*5D
1514246719.5,11852,8.44,73562.0,-5.09,-6.27,-6.19,0,*5E
1514246720.76,11853,8.44,73562.3,-5.07,-6.23,-6.23,0,*5C
1514246722.03,11854,8.44,73560.3,-5.07,-6.23,-6.23,0,*5B
1514246723.29,11855,8.44,73570.5,-5.07,-6.23,-6.23,0,*5A
1514246724.55,11856,8.44,73566.0,-5.07,-6.23,-6.23,0,*59
1514246725.82,11857,8.44,73566.3,-5.07,-6.23,-6.23,0,*58
1514246727.03,11858,8.44,73560.3,-5.07,-6.13,-6.13,0,*57
1514246728.25,11859,8.44,73558.8,-5.07,-6.13,-6.13,0,*56
1514246729.51,11860,8.44,73564.0,-5.07,-6.23,-6.23,0,*5C
1514246730.75,11861,8.44,73560.8,-5.07,-6.23,-6.13,0,*5E
1514246731.99,11862,8.44,73560.3,-5.07,-6.23,-6.13,0,*5D
1514246733.21,11863,8.44,73560.0,-5.07,-6.13,-6.13,0,*5F
1514246734.47,11864,8.44,73560.5,-5.07,-6.23,-6.23,0,*58
1514246735.71,11865,8.44,73548.8,-5.07,-6.23,-6.13,0,*5A
1514246736.93,11866,8.44,73550.3,-5.07,-6.13,-6.13,0,*5A
1514246738.15,11867,8.44,73552.0,-5.07,-6.13,-6.13,0,*5B
1514246739.35,11868,8.44,73556.5,-5.05,-6.13,-6.13,0,*56
1514246740.59,11869,8.44,73556.3,-5.09,-6.27,-6.19,0,*56
1514246741.84,11870,8.44,73558.0,-5.09,-6.19,-6.19,0,*53
1514246743.09,11871,8.44,73564.5,-5.09,-6.27,-6.19,0,*5F
1514246744.33,11872,8.44,73558.3,-5.07,-6.23,-6.13,0,*5C
1514246745.57,11873,8.44,73566.0,-5.07,-6.23,-6.13,0,*5D
1514246746.78,11874,8.44,73568.5,-5.07,-6.13,-6.13,0,*59
1514246748.0,11875,8.44,73566.3,-5.05,-6.13,-6.23,0,*59
1514246749.24,11876,8.44,73564.5,-5.07,-6.23,-6.13,0,*58
1514246750.46,11877,8.44,73564.8,-5.07,-6.13,-6.13,0,*5A
1514246751.68,11878,8.44,73562.0,-5.07,-6.13,-6.13,0,*55
1514246752.9,11879,8.44,73558.8,-5.05,-6.13,-6.23,0,*55
1514246754.14,11880,8.44,73564.3,-5.07,-6.23,-6.13,0,*51
1514246755.36,11881,8.44,73566.3,-5.07,-6.13,-6.13,0,*53
1514246756.6,11882,8.44,73566.3,-5.07,-6.13,-6.23,0,*53
1514246757.81,11883,8.44,73570.5,-5.07,-6.13,-6.13,0,*51
1514246759.01,11884,8.44,73570.5,-5.05,-6.09,-6.13,0,*5F
1514246760.25,11885,8.44,73570.0,-5.07,-6.23,-6.13,0,*54
1514246761.52,11886,8.44,73556.3,-5.07,-6.23,-6.23,0,*54
1514246762.73,11887,8.44,73556.3,-5.07,-6.13,-6.13,0,*55
1514246763.95,11888,8.44,73544.3,-5.07,-6.09,-6.13,0,*51
1514246765.17,11889,8.44,73542.8,-5.07,-6.09,-6.01,0,*53
1514246766.41,11890,8.44,73538.3,-5.07,-6.13,-6.23,0,*50
1514246767.63,11891,8.44,73528.5,-5.07,-6.13,-6.13,0,*52
1514246768.87,11892,8.44,73528.0,-5.07,-6.23,-6.09,0,*59
1514246770.09,11893,8.44,73526.8,-5.07,-6.09,-6.09,0,*50
1514246771.33,11894,8.44,73532.3,-5.07,-6.23,-6.09,0,*5F
1514246772.55,11895,8.44,73540.5,-5.07,-6.13,-6.01,0,*55
1514246773.77,11896,8.44,73542.5,-5.07,-6.09,-6.09,0,*55
1514246774.98,11897,8.44,73542.3,-5.07,-6.13,-6.13,0,*54
1514246776.2,11898,8.44,73538.0,-5.07,-6.13,-6.01,0,*58
1514246777.4,11899,8.44,73544.0,-5.05,-6.09,-6.09,0,*58
1514246778.62,11900,8.44,73548.0,-5.07,-6.09,-6.13,0,*50
1514246779.84,11901,8.44,73548.0,-5.07,-6.13,-6.13,0,*5A
1514246781.06,11902,8.44,73550.0,-5.07,-6.09,-6.09,0,*59
1514246782.28,11903,8.44,73552.8,-5.07,-6.09,-6.09,0,*58
1514246783.49,11904,8.44,73554.0,-5.07,-6.09,-6.01,0,*57
1514246784.71,11905,8.44,73556.8,-5.07,-6.09,-6.09,0,*5E
1514246785.93,11906,8.44,73556.3,-5.07,-6.09,-6.09,0,*5D
1514246787.13,11907,8.44,73558.8,-5.05,-6.13,-6.09,0,*55
1514246788.33,11908,8.44,73558.0,-5.05,-6.09,-6.01,0,*59
1514246789.55,11909,8.44,73558.0,-5.07,-6.09,-6.09,0,*52
1514246790.77,11910,8.44,73562.0,-5.07,-6.01,-6.01,0,*5A
1514246791.98,11911,8.44,73562.8,-5.07,-6.09,-6.09,0,*5B
1514246793.2,11912,8.44,73554.3,-5.07,-6.09,-6.09,0,*58
1514246794.42,11913,8.44,73558.8,-5.07,-6.09,-6.01,0,*51
1514246795.64,11914,8.44,73558.8,-5.07,-6.09,-6.01,0,*56
1514246796.86,11915,8.44,73546.5,-5.07,-6.09,-6.09,0,*5F
1514246798.08,11916,8.44,73548.0,-5.07,-6.09,-6.09,0,*5C
1514246799.3,11917,8.44,73552.3,-5.07,-6.01,-6.09,0,*55
1514246800.5,11918,8.44,73548.5,-5.05,-6.09,-6.09,0,*50
1514246801.7,11919,8.44,73546.8,-5.05,-6.09,-6.09,0,*51
1514246802.89,11920,8.44,73550.0,-5.05,-6.09,-6.09,0,*5B
1514246804.09,11921,8.44,73550.8,-5.05,-6.01,-6.09,0,*52
1514246805.31,11922,8.44,73554.8,-5.07,-6.13,-6.09,0,*50
1514246806.5,11923,8.44,73554.5,-5.05,-6.01,-6.09,0,*50
1514246807.7,11924,8.44,73558.3,-5.05,-6.09,-6.09,0,*5F
1514246808.9,11925,8.44,73558.5,-5.05,-6.09,-6.09,0,*5E
1514246810.1,11926,8.44,73560.8,-5.05,-6.09,-6.09,0,*5D
1514246811.32,11927,8.44,73558.0,-5.07,-6.09,-6.01,0,*56
1514246812.52,11928,8.44,73558.8,-5.05,-6.09,-6.09,0,*53
1514246813.72,11929,8.44,73554.3,-5.05,-6.09,-6.09,0,*52
1514246814.92,11930,8.44,73556.8,-5.05,-6.09,-6.01,0,*52
1514246816.11,11931,8.44,73558.0,-5.05,-6.01,-6.09,0,*53
1514246817.31,11932,8.44,73552.5,-5.05,-6.09,-6.09,0,*58
1514246818.51,11933,8.44,73556.0,-5.05,-6.09,-6.09,0,*59
1514246819.71,11934,8.44,73554.0,-5.05,-6.09,-6.09,0,*5E
1514246820.91,11935,8.44,73550.5,-5.05,-6.09,-6.01,0,*57
1514246822.11,11936,8.44,73550.8,-5.05,-6.09,-6.09,0,*5C
1514246823.3,11937,8.44,73550.8,-5.05,-6.09,-6.09,0,*5D
1514246824.5,11938,8.44,73550.5,-5.05,-6.09,-6.01,0,*5A
1514246825.7,11939,8.44,73548.0,-5.05,-6.09,-6.09,0,*53
1514246826.9,11940,8.44,73554.0,-5.05,-6.09,-6.09,0,*5D
1514246828.11,11941,8.44,73554.3,-5.03,-6.05,-6.05,0,*5A
1514246829.33,11942,8.44,73546.8,-5.03,-6.05,-6.05,0,*59
1514246830.54,11943,8.44,73542.5,-5.03,-6.05,-6.05,0,*58
1514246831.75,11944,8.44,73546.8,-5.03,-5.97,-6.05,0,*57
1514246832.97,11945,8.44,73554.0,-5.03,-6.09,-6.05,0,*52
1514246834.17,11946,8.44,73552.0,-5.05,-6.09,-6.09,0,*5B
1514246835.38,11947,8.44,73544.5,-5.03,-5.97,-6.05,0,*54
1514246836.6,11948,8.44,73532.0,-5.03,-6.09,-6.05,0,*5F
1514246837.82,11949,8.44,73530.8,-5.03,-6.09,-5.97,0,*56
1514246839.01,11950,8.44,73534.8,-5.01,-6.05,-6.05,0,*58
1514246840.2,11951,8.44,73540.5,-5.05,-6.01,-6.13,0,*5E
1514246841.4,11952,8.44,73536.5,-5.05,-6.09,-6.09,0,*5E
1514246842.61,11953,8.44,73536.5,-5.03,-6.05,-6.09,0,*55
1514246843.83,11954,8.44,73540.5,-5.03,-6.05,-5.97,0,*56
1514246845.01,11955,8.44,73540.0,-5.01,-6.05,-6.05,0,*5D
1514246846.23,11956,8.44,73544.0,-5.03,-6.05,-6.09,0,*50
1514246847.44,11957,8.44,73546.3,-5.03,-6.05,-6.05,0,*5D
1514246848.65,11958,8.44,73548.3,-5.03,-6.05,-6.05,0,*52
1514246849.84,11959,8.44,73548.3,-5.01,-6.09,-6.09,0,*51
1514246851.06,11960,8.44,73550.3,-5.03,-6.05,-6.09,0,*55
1514246852.27,11961,8.44,73548.0,-5.03,-6.05,-6.05,0,*58
1514246853.48,11962,8.44,73552.5,-5.03,-6.05,-6.05,0,*5B
1514246854.69,11963,8.44,73552.0,-5.03,-6.05,-6.05,0,*5A
1514246855.9,11964,8.44,73558.5,-5.03,-6.05,-6.09,0,*51
1514246857.09,11965,8.44,73556.3,-5.01,-5.97,-6.09,0,*5A
1514246858.31,11966,8.44,73558.5,-5.03,-6.09,-6.05,0,*53
1514246859.52,11967,8.44,73554.0,-5.03,-6.05,-6.05,0,*5E
1514246860.72,11968,8.44,73552.3,-5.01,-6.09,-6.05,0,*5F
1514246861.93,11969,8.44,73558.3,-5.03,-6.09,-6.05,0,*5C
1514246863.15,11970,8.44,73560.8,-5.03,-6.05,-6.09,0,*54
1514246864.37,11971,8.44,73560.5,-5.03,-6.09,-6.09,0,*59
1514246865.58,11972,8.44,73566.3,-5.01,-6.19,-6.05,0,*55
1514246866.77,11973,8.44,73560.8,-5.01,-6.05,-6.09,0,*55
1514246867.98,11974,8.44,73562.5,-5.03,-6.05,-6.05,0,*5C
1514246869.2,11975,8.44,73558.3,-5.03,-6.09,-6.09,0,*5D
1514246870.39,11976,8.44,73556.5,-5.01,-6.05,-6.09,0,*50
1514246871.58,11977,8.44,73556.3,-5.01,-6.09,-6.09,0,*5D
1514246872.8,11978,8.44,73550.0,-5.01,-6.09,-6.19,0,*53
1514246874.02,11979,8.44,73542.0,-5.03,-6.09,-6.09,0,*51
1514246875.26,11980,8.44,73554.8,-5.03,-6.19,-6.09,0,*56
1514246876.46,11981,8.44,73552.8,-5.01,-6.09,-6.09,0,*54
1514246877.68,11982,8.44,73556.5,-5.01,-6.09,-6.19,0,*56
1514246878.87,11983,8.44,73554.3,-5.01,-6.09,-6.09,0,*56
1514246880.1,11984,8.44,73552.8,-5.01,-6.09,-6.19,0,*50
1514246881.31,11985,8.44,73550.3,-5.03,-6.09,-6.09,0,*52
1514246882.51,11986,8.44,73554.8,-5.01,-6.09,-6.09,0,*53
1514246883.72,11987,8.44,73552.3,-5.01,-6.19,-6.09,0,*53
1514246884.95,11988,8.44,73552.8,-5.01,-6.09,-6.19,0,*5C
1514246886.16,11989,8.44,73554.3,-5.01,-6.19,-6.09,0,*5D
1514246887.41,11990,8.44,73556.0,-5.03,-6.19,-6.09,0,*57
1514246888.65,11991,8.44,73552.5,-5.03,-6.19,-6.09,0,*56
1514246889.87,11992,8.44,73550.3,-5.01,-6.19,-6.09,0,*57
1514246891.08,11993,8.44,73550.3,-5.03,-6.09,-6.09,0,*55
1514246892.33,11994,8.44,73548.8,-5.05,-6.23,-6.23,0,*54
1514246893.58,11995,8.44,73550.5,-5.03,-6.09,-6.19,0,*52
1514246894.8,11996,8.44,73546.8,-5.01,-6.09,-6.19,0,*53
1514246896.07,11997,8.44,73548.0,-5.03,-6.19,-6.19,0,*51
1514246897.3,11998,8.44,73548.3,-5.01,-6.09,-6.19,0,*5D
1514246898.54,11999,8.44,73544.0,-5.03,-6.19,-6.09,0,*5E
1514246899.81,12000,8.44,73544.8,-5.03,-6.19,-6.19,0,*55
1514246901.03,12001,8.44,73550.3,-5.03,-6.09,-6.09,0,*54
1514246902.31,12002,8.44,73558.5,-5.03,-6.19,-6.19,0,*57
1514246903.55,12003,8.44,73552.8,-5.01,-6.19,-6.19,0,*54
1514246904.83,12004,8.44,73554.3,-5.03,-6.19,-6.19,0,*51
1514246906.07,12005,8.44,73552.0,-5.03,-6.09,-6.19,0,*51
1514246907.35,12006,8.44,73556.5,-5.03,-6.19,-6.19,0,*53
1514246908.62,12007,8.44,73556.8,-5.03,-6.19,-6.19,0,*52
1514246909.87,12008,8.44,73558.5,-5.03,-6.09,-6.23,0,*55
1514246911.14,12009,8.44,73552.8,-5.03,-6.19,-6.19,0,*5C
1514246912.41,12010,8.44,73556.3,-5.03,-6.19,-6.19,0,*54
1514246913.68,12011,8.44,73554.3,-5.03,-6.19,-6.23,0,*5C
1514246914.95,12012,8.44,73552.3,-5.03,-6.19,-6.19,0,*56
1514246916.2,12013,8.44,73556.5,-5.01,-6.19,-6.19,0,*55
1514246917.44,12014,8.44,73562.5,-5.01,-6.19,-6.23,0,*5B
1514246918.71,12015,8.44,73558.8,-5.03,-6.19,-6.19,0,*51
1514246919.96,12016,8.44,73558.5,-5.03,-6.19,-6.09,0,*53